Location: Budapest
(47.4979°N, 19.0402°E)
Time: 10:53:25
(UTC+02:00)

ISS - Pass Details

Date: 14 October 2017
Orbit: 401 x 408 km, 51.6° (Epoch: 20 October)

Event Time Altitude Azimuth Distance (km) Brightness Sun altitude
Rises 19:14:44 0° 289° (WNW) 2,326 1.6 -13.8°
Reaches altitude 10° 19:17:01 10° 276° (W) 1,464 0.4 -14.2°
Maximum altitude 19:19:47 25° 219° (SW) 859 -1.8 -14.6°
Drops below altitude 10° 19:22:32 10° 161° (SSE) 1,460 -1.2 -15.1°
Enters shadow 19:22:39 - 160° (SSE) 1,500 -1.2 -15.1°
